Time,TemperatureF,DewpointF,PressureIn,WindDirection,WindDirectionDegrees,WindSpeedMPH,WindSpeedGustMPH,Humidity,HourlyPrecipIn,Conditions,Clouds,dailyrainin,SolarRadiationWatts/m^2,SoftwareType,DateUTC
2013-07-19 01:00:00,72.0,55.0,-100.00,East,87,2.0,4.0,55,-99.99,,,-99.99,0.000000,,2013-07-19 08:00:00,
2013-07-19 01:43:00,72.0,55.0,-100.00,East,87,2.0,4.0,55,-99.99,,,-99.99,0.000000,,2013-07-19 08:43:00,
2013-07-19 01:52:00,72.0,55.0,-100.00,East,87,2.0,4.0,55,-99.99,,,-99.99,0.000000,,2013-07-19 08:52:00,
2013-07-19 02:00:00,70.0,55.0,-100.00,NE,53,1.0,4.0,57,-99.99,,,0.00,0.000000,,2013-07-19 09:00:00,
2013-07-19 02:43:00,70.0,55.0,-100.00,NE,53,1.0,4.0,57,-99.99,,,0.00,0.000000,,2013-07-19 09:43:00,
2013-07-19 02:52:00,70.0,55.0,-100.00,NE,53,1.0,4.0,57,-99.99,,,0.00,0.000000,,2013-07-19 09:52:00,
2013-07-19 03:00:00,68.0,54.0,-100.00,NNE,21,0.0,2.0,60,-99.99,,,-99.99,0.000000,,2013-07-19 10:00:00,
2013-07-19 03:43:00,68.0,54.0,-100.00,NNE,21,0.0,2.0,60,-99.99,,,-99.99,0.000000,,2013-07-19 10:43:00,
2013-07-19 03:52:00,68.0,54.0,-100.00,NNE,21,0.0,2.0,60,-99.99,,,-99.99,0.000000,,2013-07-19 10:52:00,
2013-07-19 04:00:00,68.0,53.0,-100.00,WNW,291,1.0,3.0,59,-99.99,,,0.00,0.000000,,2013-07-19 11:00:00,
2013-07-19 04:43:00,68.0,53.0,-100.00,WNW,291,1.0,3.0,59,-99.99,,,0.00,0.000000,,2013-07-19 11:43:00,
2013-07-19 04:52:00,68.0,53.0,-100.00,WNW,291,1.0,3.0,59,-99.99,,,0.00,0.000000,,2013-07-19 11:52:00,
2013-07-19 05:00:00,66.0,54.0,-100.00,West,279,2.0,4.0,65,-99.99,,,0.00,0.230000,,2013-07-19 12:00:00,
2013-07-19 05:43:00,66.0,54.0,-100.00,West,279,2.0,4.0,65,-99.99,,,0.00,0.230000,,2013-07-19 12:43:00,
2013-07-19 05:52:00,66.0,54.0,-100.00,West,279,2.0,4.0,65,-99.99,,,0.00,0.230000,,2013-07-19 12:52:00,
2013-07-19 06:00:00,67.0,55.0,-100.00,ENE,69,1.0,2.0,67,-99.99,,,0.00,27.080000,,2013-07-19 13:00:00,
2013-07-19 06:43:00,67.0,55.0,-100.00,ENE,69,1.0,2.0,67,-99.99,,,0.00,27.080000,,2013-07-19 13:43:00,
2013-07-19 06:53:00,67.0,55.0,-100.00,ENE,69,1.0,2.0,67,-99.99,,,0.00,27.080000,,2013-07-19 13:53:00,
2013-07-19 07:00:00,70.0,55.0,-100.00,West,261,1.0,3.0,60,-99.99,,,0.00,199.080002,,2013-07-19 14:00:00,
2013-07-19 07:43:00,70.0,55.0,-100.00,West,261,1.0,3.0,60,-99.99,,,0.00,199.080002,,2013-07-19 14:43:00,
2013-07-19 07:53:00,70.0,55.0,-100.00,West,261,1.0,3.0,60,-99.99,,,0.00,199.080002,,2013-07-19 14:53:00,
2013-07-19 08:00:00,71.0,55.0,-100.00,East,101,3.0,7.0,56,-99.99,,,-99.99,367.019989,,2013-07-19 15:00:00,
2013-07-19 08:43:00,71.0,55.0,-100.00,East,101,3.0,7.0,56,-99.99,,,-99.99,367.019989,,2013-07-19 15:43:00,
2013-07-19 08:52:00,71.0,55.0,-100.00,East,101,3.0,7.0,56,-99.99,,,-99.99,367.019989,,2013-07-19 15:52:00,
2013-07-19 09:00:00,74.0,56.0,-100.00,East,96,3.0,6.0,53,-99.99,,,0.00,537.169983,,2013-07-19 16:00:00,
2013-07-19 09:43:00,74.0,56.0,-100.00,East,96,3.0,6.0,53,-99.99,,,0.00,537.169983,,2013-07-19 16:43:00,
2013-07-19 09:52:00,74.0,56.0,-100.00,East,96,3.0,6.0,53,-99.99,,,0.00,537.169983,,2013-07-19 16:52:00,
2013-07-19 10:00:00,77.0,57.0,-100.00,East,97,3.0,5.0,48,-99.99,,,0.00,687.090027,,2013-07-19 17:00:00,
2013-07-19 10:43:00,77.0,57.0,-100.00,East,97,3.0,5.0,48,-99.99,,,0.00,687.090027,,2013-07-19 17:43:00,
2013-07-19 10:52:00,77.0,57.0,-100.00,East,97,3.0,5.0,48,-99.99,,,0.00,687.090027,,2013-07-19 17:52:00,
2013-07-19 11:00:00,79.0,58.0,-100.00,ESE,104,2.0,5.0,49,-99.99,,,0.00,808.429993,,2013-07-19 18:00:00,
2013-07-19 11:42:00,79.0,58.0,-100.00,ESE,104,2.0,5.0,49,-99.99,,,0.00,808.429993,,2013-07-19 18:42:00,
2013-07-19 11:52:00,79.0,58.0,-100.00,ESE,104,2.0,5.0,49,-99.99,,,0.00,808.429993,,2013-07-19 18:52:00,
2013-07-19 12:00:00,86.0,59.0,-100.00,SE,131,2.0,3.0,39,-99.99,,,0.00,888.969971,,2013-07-19 19:00:00,
2013-07-19 12:43:00,86.0,59.0,-100.00,SE,131,2.0,3.0,39,-99.99,,,0.00,888.969971,,2013-07-19 19:43:00,
2013-07-19 12:52:00,86.0,59.0,-100.00,SE,131,2.0,3.0,39,-99.99,,,0.00,888.969971,,2013-07-19 19:52:00,
2013-07-19 13:00:00,92.0,46.0,-100.00,WNW,286,7.0,10.0,20,-99.99,,,0.00,942.539978,,2013-07-19 20:00:00,
2013-07-19 13:43:00,92.0,46.0,-100.00,WNW,286,7.0,10.0,20,-99.99,,,0.00,942.539978,,2013-07-19 20:43:00,
2013-07-19 13:52:00,92.0,46.0,-100.00,WNW,286,7.0,10.0,20,-99.99,,,0.00,942.539978,,2013-07-19 20:52:00,
2013-07-19 14:00:00,94.0,43.0,-100.00,West,275,6.0,13.0,17,-99.99,,,0.00,923.020020,,2013-07-19 21:00:00,
2013-07-19 14:42:00,94.0,43.0,-100.00,West,275,6.0,13.0,17,-99.99,,,0.00,923.020020,,2013-07-19 21:42:00,
2013-07-19 14:52:00,94.0,43.0,-100.00,West,275,6.0,13.0,17,-99.99,,,0.00,923.020020,,2013-07-19 21:52:00,
2013-07-19 15:00:00,94.0,46.0,-100.00,WSW,257,5.0,9.0,19,-99.99,,,0.00,858.750000,,2013-07-19 22:00:00,
2013-07-19 15:42:00,94.0,46.0,-100.00,WSW,257,5.0,9.0,19,-99.99,,,0.00,858.750000,,2013-07-19 22:42:00,
2013-07-19 15:52:00,94.0,46.0,-100.00,WSW,257,5.0,9.0,19,-99.99,,,0.00,858.750000,,2013-07-19 22:52:00,
2013-07-19 16:00:00,96.0,38.0,-100.00,WSW,239,5.0,9.0,13,-99.99,,,0.00,755.429993,,2013-07-19 23:00:00,
2013-07-19 16:43:00,96.0,38.0,-100.00,WSW,239,5.0,9.0,13,-99.99,,,0.00,755.429993,,2013-07-19 23:43:00,
2013-07-19 16:52:00,96.0,38.0,-100.00,WSW,239,5.0,9.0,13,-99.99,,,0.00,755.429993,,2013-07-19 23:52:00,
2013-07-19 17:00:00,97.0,31.0,-100.00,SW,232,4.0,10.0,10,-99.99,,,0.00,607.369995,,2013-07-20 00:00:00,
2013-07-19 17:43:00,97.0,31.0,-100.00,SW,232,4.0,10.0,10,-99.99,,,0.00,607.369995,,2013-07-20 00:43:00,
2013-07-19 17:52:00,97.0,31.0,-100.00,SW,232,4.0,10.0,10,-99.99,,,0.00,607.369995,,2013-07-20 00:52:00,
2013-07-19 18:00:00,97.0,24.0,-100.00,SSW,194,2.0,5.0,7,-99.99,,,0.00,445.119995,,2013-07-20 01:00:00,
2013-07-19 18:52:00,97.0,24.0,-100.00,SSW,194,2.0,5.0,7,-99.99,,,0.00,445.119995,,2013-07-20 01:52:00,
2013-07-19 19:00:00,93.0,36.0,-100.00,West,265,2.0,5.0,13,-99.99,,,0.00,265.329987,,2013-07-20 02:00:00,
2013-07-19 19:43:00,93.0,36.0,-100.00,West,265,2.0,5.0,13,-99.99,,,0.00,265.329987,,2013-07-20 02:43:00,
2013-07-19 19:52:00,93.0,36.0,-100.00,West,265,2.0,5.0,13,-99.99,,,0.00,265.329987,,2013-07-20 02:52:00,
2013-07-19 20:00:00,91.0,36.0,-100.00,SSE,159,1.0,3.0,14,-99.99,,,0.00,98.209999,,2013-07-20 03:00:00,
2013-07-19 20:44:00,91.0,36.0,-100.00,SSE,159,1.0,3.0,14,-99.99,,,0.00,98.209999,,2013-07-20 03:44:00,
2013-07-19 20:53:00,91.0,36.0,-100.00,SSE,159,1.0,3.0,14,-99.99,,,0.00,98.209999,,2013-07-20 03:53:00,
2013-07-19 21:00:00,83.0,41.0,-100.00,ENE,73,3.0,5.0,23,-99.99,,,0.00,3.250000,,2013-07-20 04:00:00,
2013-07-19 21:44:00,83.0,41.0,-100.00,ENE,73,3.0,5.0,23,-99.99,,,0.00,3.250000,,2013-07-20 04:44:00,
2013-07-19 21:52:00,83.0,41.0,-100.00,ENE,73,3.0,5.0,23,-99.99,,,0.00,3.250000,,2013-07-20 04:52:00,
2013-07-19 22:00:00,82.0,39.0,-100.00,East,92,3.0,7.0,21,-99.99,,,0.00,0.000000,,2013-07-20 05:00:00,
2013-07-19 22:52:00,82.0,39.0,-100.00,East,92,3.0,7.0,21,-99.99,,,0.00,0.000000,,2013-07-20 05:52:00,
2013-07-19 23:00:00,78.0,46.0,-100.00,East,83,3.0,7.0,32,-99.99,,,0.00,0.000000,,2013-07-20 06:00:00,
2013-07-19 23:43:00,78.0,46.0,-100.00,East,83,3.0,7.0,32,-99.99,,,0.00,0.000000,,2013-07-20 06:43:00,
2013-07-19 23:52:00,78.0,46.0,-100.00,East,83,3.0,7.0,32,-99.99,,,0.00,0.000000,,2013-07-20 06:52:00,